User: anonymous
Location: Charleston
(38.3500°N, 81.6330°W)
Time: 21:16:20
(UTC-04:00)
Language:

Cosmos 1812 Rocket - Orbit

View from above orbital plane
View from above orbital plane
View from above satellite
View from above satellite

Ground track
Ground track

The orbit data is extracted from the following two-line orbital elements,

1 17296U 87003B   14211.76250550  .00000185  00000-0  19869-4 0  6989
2 17296 082.5305 288.7658 0020804 090.8300 045.3332 14.82648665487142
Epoch (UTC): 30 July 2014 18:18:00
Eccentricity: 0.0020804
inclination: 82.5305°
perigee height: 606 km
apogee height: 635 km
right ascension of ascending node: 288.7658°
argument of perigee: 90.8300°
revolutions per day: 14.82648665
mean anomaly at epoch: 45.3332°
orbit number at epoch: 48714

The dashed part of the orbit path shows where the satellite is in the earth's shadow,  

DLR